Terminal Aerodrome Forecast
Issued by NWS

Home | Current Version | Previous Version | Text Only | Print | Product List | Glossary On
Versions: 1 2 3 4 5 6 7 8 9 10 11 12 13 14 15 16 17 18 19 20 21 22 23 24 25 26 27 28 29 30 31 32 33 34 35 36 37 38 39 40 41 42 43 44 45
500
FTUS46 KEKA 070550
TAFACV
TAF
KACV 070550Z 0706/0806 11003KT P6SM FEW050 SCT250
     FM071100 00000KT 6SM BR FEW250
      TEMPO 0712/0716 5SM BR FEW010 SCT250
     FM071800 32006KT 6SM HZ SKC
     FM080300 03003KT P6SM MIFG SKC=

USA.gov is the U.S. government's official web portal to all federal, state and local government web resources and services.